GFSNIL_850_spd_000.txt.gz
Wind_Speed
20 13 10 15 16 17 16 20 23 27 30 30 30 30 30 31 32 33 35 37 37 36
19 17 16 17 18 17 20 21 23 31 33 33 31 31 29 29 31 31 34 36 37 38
17 16 16 18 21 23 26 27 30 31 28 26 27 28 28 30 31 32 34 35 36 36
13 15 18 20 21 23 26 28 26 25 25 27 28 27 28 30 31 31 33 35 39 39
15 16 18 18 22 24 24 25 25 25 26 28 28 28 29 30 31 32 33 35 36 40
17 15 15 17 21 23 24 24 25 26 28 29 29 29 30 31 32 34 36 36 37 39
12 17 19 23 27 28 28 28 28 29 30 30 31 31 31 32 33 35 38 39 41 43
16 21 24 27 31 30 29 29 29 31 32 31 31 31 30 31 32 35 34 35 38 40
20 21 26 31 30 28 28 29 29 31 31 33 32 33 37 36 33 31 32 35 36 38
20 25 30 30 28 28 30 31 31 31 31 33 33 35 34 31 32 33 32 33 34 33
23 28 30 27 27 28 29 31 31 31 32 34 34 35 32 32 33 33 35 36 36 38
27 29 27 27 27 28 29 30 31 31 32 33 34 33 31 30 31 31 33 34 35 36
27 27 26 27 27 28 29 30 31 33 31 31 33 29 27 25 28 30 29 30 30 32
26 24 27 26 26 28 28 31 33 32 31 32 31 31 29 26 26 29 28 27 28 31

GFSNIL_850_spd_003.txt.gz
Wind_Speed
24 21 16 14 16 22 14 13 14 18 18 21 22 23 25 28 31 31 33 34 35 36
22 20 18 17 14 14 11 13 16 18 22 22 23 24 25 28 29 30 33 34 35 38
18 18 19 16 21 16 15 16 19 22 24 25 25 25 26 29 29 31 33 34 35 38
16 14 16 16 11 13 19 20 23 25 25 25 26 26 28 29 32 33 34 34 36 39
14 13 12 14 16 17 18 22 23 25 27 28 28 28 30 32 33 34 35 36 36 38
10 13 17 17 17 18 20 22 25 26 28 29 30 30 31 32 34 34 36 37 38 39
14 15 16 16 16 18 21 24 26 27 28 29 30 31 31 32 33 34 36 37 38 41
15 16 15 16 18 21 23 25 26 28 29 29 30 31 30 31 32 34 38 39 39 41
15 15 15 17 20 23 25 25 27 28 29 30 30 31 35 39 36 38 39 38 37 36
13 14 16 19 23 24 25 26 28 29 28 29 30 33 36 40 39 38 37 36 36 36
13 15 18 21 23 25 26 26 27 28 28 30 31 35 36 34 34 36 36 37 37 38
13 17 20 22 24 25 25 26 28 27 28 31 33 29 27 26 28 30 32 33 34 35
14 18 21 22 24 24 25 27 28 30 30 30 30 27 28 29 31 33 36 36 33 31
16 19 20 22 23 25 26 27 32 35 34 30 28 31 32 33 29 31 34 33 32 31

GFSNIL_850_spd_006.txt.gz
Wind_Speed
35 36 30 28 23 23 23 21 22 21 21 22 27 29 28 30 30 30 31 32 32 33
29 30 30 23 21 22 16 10 11 15 18 29 27 27 28 31 31 30 31 32 34 36
27 26 24 19 18 13 16 20 16 20 25 26 28 30 30 31 32 32 33 34 34 34
25 21 19 20 15 20 15 19 21 25 27 28 29 31 31 32 33 34 35 35 36 37
19 17 16 13 12 17 17 20 23 24 26 29 31 32 32 34 34 35 36 37 37 38
14 12 12 16 20 23 16 23 23 25 29 32 33 33 33 34 35 37 37 38 38 39
11 12 15 18 15 16 21 21 26 30 32 33 33 32 32 33 35 36 35 35 36 37
15 19 19 15 14 19 23 28 29 32 31 31 31 32 31 31 35 37 41 43 44 47
14 12 13 15 18 25 27 27 30 29 31 31 31 30 32 35 38 41 43 46 47 47
10 10 14 17 22 24 28 27 29 31 29 30 31 31 33 36 41 44 44 42 41 42
9 12 16 20 23 25 27 29 31 29 29 32 35 38 40 32 26 30 32 34 34 35
11 14 19 21 22 27 29 28 27 27 32 36 37 36 27 26 29 33 35 36 36 36
13 15 18 21 26 27 24 27 29 36 29 35 35 28 27 29 33 38 37 40 36 37
13 17 19 22 24 24 27 30 29 27 35 33 31 31 31 33 35 36 38 38 38 35

GFSNIL_850_spd_009.txt.gz
Wind_Speed
27 35 40 41 36 33 28 25 23 27 25 25 25 28 37 30 28 32 33 34 32 32
36 37 29 30 27 25 23 22 20 15 19 21 31 25 19 27 32 33 34 34 33 34
36 25 23 26 23 21 19 19 16 20 28 25 15 20 27 30 32 33 34 35 35 35
29 24 22 20 17 16 20 26 21 29 16 17 22 27 30 32 34 35 36 35 35 36
22 20 16 15 16 17 17 17 21 13 17 24 27 30 33 35 36 37 37 37 37 38
15 13 14 13 10 12 17 18 17 17 22 27 32 34 35 36 35 35 35 37 37 38
12 8 9 13 13 11 15 14 19 23 29 31 33 34 32 33 34 33 34 34 33 34
10 12 14 16 19 10 15 21 26 28 29 33 32 33 32 29 32 37 41 44 45 46
14 16 21 13 15 16 21 25 25 30 30 31 34 31 31 34 37 40 42 46 48 48
24 15 11 10 11 21 23 27 30 32 34 32 30 32 35 39 41 38 35 32 33 34
5 4 6 15 19 23 26 28 32 31 28 30 33 36 35 30 27 29 30 31 33 36
6 12 14 18 20 23 28 31 28 28 32 35 31 36 31 27 27 31 34 35 37 37
10 16 16 18 22 27 27 26 30 30 26 28 36 33 27 25 29 33 34 34 34 35
15 16 18 23 25 24 26 26 23 25 30 29 32 27 26 25 27 28 32 33 36 33

GFSNIL_850_spd_012.txt.gz
Wind_Speed
39 33 32 34 34 35 35 29 30 30 29 26 20 24 27 26 29 32 23 23 30 34
31 33 34 32 29 27 29 31 29 30 25 30 34 30 31 23 17 18 24 30 31 32
31 31 28 23 14 18 26 26 21 19 16 23 26 16 16 17 22 27 30 32 34 36
29 29 27 20 19 18 19 16 22 22 19 17 12 13 18 24 27 30 33 34 36 38
24 22 16 13 12 13 15 18 13 13 12 13 16 19 23 28 30 33 35 36 35 36
21 15 13 13 13 14 13 10 11 12 16 18 21 27 29 30 33 33 35 35 35 36
11 11 11 11 10 10 9 7 13 16 20 24 27 29 32 32 33 36 33 34 34 37
16 15 12 9 9 10 17 16 15 22 25 26 29 30 32 34 34 34 38 40 43 45
18 16 17 15 13 12 12 13 19 24 26 28 32 32 29 30 33 38 43 44 41 36
13 12 12 7 4 8 13 19 24 26 29 32 28 29 31 35 34 37 35 34 33 32
6 7 4 6 10 17 21 24 27 30 29 30 32 32 31 34 35 33 31 30 32 35
3 8 13 19 20 21 23 27 29 28 31 29 29 32 34 32 28 28 30 33 32 31
12 18 17 19 21 23 25 25 28 27 25 29 33 29 25 23 23 28 29 30 29 30
16 18 19 21 21 21 25 25 24 26 28 28 23 24 21 21 21 24 28 30 32 31

GFSNIL_850_spd_015.txt.gz
Wind_Speed
34 33 32 32 32 32 31 32 30 23 28 31 30 25 20 20 22 28 25 29 21 20
29 31 31 30 30 31 28 25 23 23 25 22 17 18 20 25 21 19 15 17 21 23
36 33 26 26 28 27 24 21 23 24 21 21 21 26 21 16 11 16 20 22 26 28
37 29 27 26 26 26 18 18 14 16 22 22 8 9 11 14 17 21 24 27 30 33
36 28 28 22 17 15 13 16 21 19 11 8 10 14 17 20 25 26 28 31 31 33
37 24 18 15 14 14 12 9 11 10 11 12 14 19 22 25 28 30 31 32 33 34
27 21 16 14 10 7 8 9 8 15 15 18 22 23 26 30 31 34 34 33 33 34
19 16 14 16 15 13 11 16 15 18 20 23 26 29 30 32 30 30 33 36 39 41
15 14 8 10 17 18 9 11 15 19 23 27 29 30 28 29 32 35 37 37 38 39
8 8 9 10 12 12 13 16 19 22 26 30 29 30 30 30 31 35 36 36 35 33
12 11 10 13 17 17 18 20 24 27 28 29 30 29 31 33 33 33 33 30 29 30
11 16 17 19 18 21 23 24 25 27 28 28 30 31 30 28 28 29 29 27 26 28
15 16 18 21 23 22 23 25 26 26 27 29 30 25 25 24 26 28 27 27 27 28
17 20 23 23 23 24 25 24 24 27 29 26 24 24 23 24 20 23 27 27 27 29

GFSNIL_850_spd_018.txt.gz
Wind_Speed
28 30 34 37 35 32 31 34 31 29 24 21 20 19 16 15 16 16 17 16 19 18
30 35 39 36 32 27 28 31 28 22 15 14 13 13 14 15 22 15 12 14 15 14
38 41 39 37 27 24 27 27 20 15 12 11 14 19 24 24 14 15 14 14 15 17
40 42 41 31 24 23 19 14 8 8 13 20 22 11 8 11 12 14 17 20 22 25
41 44 33 24 17 9 6 8 9 13 10 9 10 11 14 16 19 21 23 26 28 29
42 34 24 15 9 8 10 15 16 19 14 14 16 16 19 21 23 26 28 30 32 31
32 25 16 11 12 13 14 13 15 16 17 17 17 20 23 25 28 31 31 31 31 33
21 19 18 16 15 13 17 16 12 15 17 20 24 27 29 30 30 31 33 34 34 35
17 14 12 13 15 15 16 18 18 18 19 24 27 29 29 29 30 31 33 35 36 34
13 13 13 15 15 18 20 18 19 22 26 28 28 28 29 30 32 32 31 31 31 30
15 16 17 19 19 20 20 23 25 25 26 27 27 29 31 30 29 28 29 29 29 27
17 18 19 20 22 24 24 23 24 25 25 27 30 29 27 26 28 29 29 28 23 23
18 19 22 25 24 23 24 24 24 25 26 27 27 27 25 24 29 27 26 25 26 22
22 23 25 24 23 23 23 24 25 27 26 25 26 25 23 25 22 23 26 27 25 23

GFSNIL_850_spd_021.txt.gz
Wind_Speed
25 28 33 37 39 38 35 32 30 27 26 22 18 14 12 11 11 13 13 13 11 12
26 32 35 39 40 37 30 28 25 21 15 11 10 11 14 16 18 21 15 12 13 13
29 34 39 43 37 26 23 18 11 7 7 8 11 13 15 11 10 12 12 12 11 12
32 38 42 39 30 20 13 5 6 12 12 14 10 6 8 8 10 12 14 15 16 18
36 39 38 28 22 9 5 9 10 14 16 15 14 13 14 15 15 16 18 21 23 25
34 32 25 21 19 14 15 16 17 17 18 17 15 16 16 18 21 23 25 26 26 26
24 22 21 15 14 16 17 15 17 14 15 17 17 20 23 26 28 29 29 29 30 29
22 18 13 12 11 12 14 17 19 20 19 20 21 24 28 30 30 29 29 29 29 29
19 11 14 13 17 17 18 20 19 17 20 23 26 26 26 26 27 29 29 27 26 26
14 14 14 16 19 20 21 21 21 23 24 25 26 25 26 28 27 26 25 26 25 24
15 16 16 18 22 24 23 22 23 24 24 24 25 26 26 26 25 23 23 25 22 21
15 18 21 23 26 24 24 24 24 23 24 26 25 24 25 23 21 22 24 20 19 20
19 20 23 25 24 24 23 23 23 24 23 23 24 24 22 21 20 20 20 20 19 21
20 23 25 24 23 23 22 22 22 23 23 22 23 23 21 20 18 18 20 21 20 19

GFSNIL_850_spd_024.txt.gz
Wind_Speed
24 21 21 22 27 29 29 27 23 18 12 10 8 8 9 15 17 16 12 11 10 8
19 22 23 25 29 29 28 21 17 11 8 8 10 14 12 14 13 11 9 9 12 12
18 20 22 25 26 24 19 12 7 8 9 10 15 14 9 5 6 7 9 9 11 12
20 21 21 21 19 16 9 8 13 14 15 17 15 13 11 11 11 11 11 12 13 14
22 20 18 17 13 10 7 15 18 18 17 19 14 14 13 13 12 12 14 16 17 19
21 18 16 13 10 11 12 13 14 11 13 14 13 11 11 13 15 16 18 19 19 19
16 18 15 12 12 11 11 11 12 15 17 17 17 15 14 15 18 19 19 19 19 20
13 15 16 12 13 12 15 16 17 18 15 14 16 17 23 24 20 20 21 21 21 20
10 10 11 12 13 13 15 17 16 16 17 17 17 21 24 25 23 21 21 21 20 21
11 10 10 11 14 16 18 17 17 17 17 17 16 23 25 26 25 21 21 22 22 23
12 11 12 14 15 18 17 17 18 17 16 17 17 25 25 26 24 20 21 22 23 22
15 15 14 16 17 17 17 17 17 16 18 18 19 22 25 25 20 21 23 21 20 20
14 15 16 16 16 16 16 17 17 17 18 19 19 20 21 20 20 21 21 21 20 21
15 15 16 15 15 16 16 17 20 20 19 18 19 22 20 20 19 20 21 21 21 18

GFSNIL_850_spd_027.txt.gz
Wind_Speed
16 17 18 19 21 23 24 25 22 20 18 16 16 14 13 16 23 25 24 21 17 14
18 18 20 21 23 24 24 23 18 21 17 16 19 21 24 20 16 13 12 13 12 13
19 20 22 23 23 23 21 19 20 20 21 22 25 24 22 18 16 16 14 14 12 14
21 21 21 22 20 18 18 17 14 17 20 23 18 14 13 13 14 14 16 15 16 16
19 20 19 16 22 18 15 15 15 16 14 11 14 14 16 17 16 17 18 20 21 22
19 19 19 20 16 15 14 14 15 13 14 16 19 20 19 19 20 20 22 23 23 23
17 16 15 18 20 13 15 16 17 19 19 20 20 20 20 18 18 21 22 23 23 23
20 14 15 14 14 15 16 17 19 21 21 20 20 22 21 25 26 23 24 24 24 23
13 14 15 14 14 15 17 20 21 21 20 20 20 23 26 30 31 26 24 24 24 24
15 14 13 14 16 17 20 21 21 21 20 20 20 24 27 32 33 25 23 23 24 24
15 15 15 17 18 20 20 20 20 20 20 20 20 25 31 34 30 22 23 23 23 24
14 16 17 18 19 19 19 20 20 19 19 20 21 24 29 31 22 22 24 22 22 22
18 17 18 18 18 18 19 20 19 20 23 21 22 22 27 26 23 25 23 23 22 22
18 17 17 16 16 19 19 19 21 26 25 22 20 23 23 24 21 24 25 25 25 22

GFSNIL_850_spd_030.txt.gz
Wind_Speed
13 16 17 18 22 25 25 23 22 22 22 26 26 24 23 23 24 29 24 19 16 15
17 18 19 20 24 22 20 19 23 29 30 23 23 24 25 25 24 21 17 16 12 15
20 19 21 21 21 20 21 26 27 27 22 21 19 20 18 17 15 16 16 17 19 18
21 20 18 19 20 22 25 28 22 18 22 19 15 16 16 17 18 18 17 17 18 19
19 19 20 22 23 23 17 15 17 19 21 17 19 20 22 22 20 22 21 18 21 23
20 18 20 23 22 23 21 21 19 18 19 20 21 22 21 22 22 18 21 23 25 26
21 22 23 19 19 19 18 17 17 18 19 22 23 23 24 22 23 26 29 35 30 27
20 16 22 21 19 17 16 16 20 21 21 22 23 24 22 25 28 31 35 37 34 25
21 20 14 18 17 17 19 18 20 21 21 21 19 24 27 29 31 34 36 38 29 23
18 14 22 21 19 18 20 20 20 21 21 19 18 23 28 33 33 34 35 26 25 28
19 17 16 17 19 19 19 20 21 20 20 23 25 29 31 34 33 34 27 24 27 27
20 14 14 17 19 18 19 20 20 17 23 30 34 29 23 28 31 30 28 28 23 23
18 19 13 16 17 18 18 19 21 26 26 30 29 24 25 25 28 29 27 30 28 27
14 19 14 12 16 17 19 20 21 26 28 27 23 25 23 25 26 23 28 31 28 25

GFSNIL_850_spd_033.txt.gz
Wind_Speed
17 17 16 19 20 24 29 32 32 26 27 29 23 20 21 22 21 24 22 21 15 16
18 20 22 23 24 24 22 22 25 29 30 27 22 17 15 14 15 15 16 15 13 14
24 26 24 23 22 24 25 27 29 26 21 22 22 19 17 16 17 19 18 18 17 17
25 19 21 24 26 27 31 25 22 21 21 23 21 19 18 18 19 19 19 18 15 19
22 22 25 26 25 30 24 21 20 21 17 17 17 18 18 17 19 19 20 19 21 21
22 23 27 29 24 28 21 18 16 16 16 18 21 22 22 22 23 23 21 23 26 31
23 26 30 24 23 27 21 19 18 20 20 20 22 22 22 21 21 25 27 30 31 32
25 30 28 26 21 21 17 15 18 20 21 23 23 22 22 26 30 32 34 35 34 33
30 30 31 25 18 16 17 18 16 18 20 23 24 26 28 31 35 36 36 35 34 31
25 24 22 16 17 18 14 16 14 19 21 22 24 26 31 35 32 28 28 29 27 27
26 24 24 19 14 12 15 15 18 17 20 21 25 29 32 27 26 29 28 28 26 27
31 30 18 14 11 14 13 15 15 16 21 26 28 31 26 26 27 27 29 27 26 31
32 27 16 19 17 8 13 14 15 19 22 26 30 24 23 26 28 30 26 28 34 28
33 28 21 7 10 9 11 14 18 21 25 28 23 23 25 27 27 26 30 34 30 26

GFSNIL_850_spd_036.txt.gz
Wind_Speed
18 18 19 22 23 23 21 20 22 24 28 28 20 19 19 16 13 13 12 14 15 14
21 21 26 26 24 22 22 23 30 30 24 22 20 21 22 20 17 16 18 17 15 15
23 26 23 24 24 25 26 27 32 26 22 24 24 20 17 17 18 17 18 18 19 18
27 25 26 26 27 30 28 26 28 20 19 20 17 16 17 17 17 18 20 21 17 15
31 30 25 28 29 29 25 26 20 17 15 15 16 17 19 20 20 19 18 17 19 23
28 30 29 28 29 28 25 23 17 16 17 19 16 19 22 22 18 19 22 24 27 31
26 28 28 30 33 27 21 19 16 16 15 19 22 23 21 22 22 25 29 33 35 33
28 30 34 27 27 26 22 14 17 18 17 18 20 21 21 22 26 31 32 29 27 27
26 23 24 21 30 28 17 16 14 14 15 20 18 20 21 26 30 30 27 27 26 25
24 28 20 25 26 33 23 9 11 15 16 16 18 20 24 27 27 26 25 26 27 28
29 29 33 31 30 18 13 13 15 13 13 15 18 22 25 24 24 24 26 27 27 26
31 35 33 28 20 20 9 9 13 11 15 17 21 24 23 25 26 27 27 28 29 30
34 31 25 19 12 4 8 11 10 13 16 21 22 21 23 25 27 29 30 28 28 23
28 22 14 9 5 8 8 10 12 14 19 20 21 22 22 24 27 25 24 24 22 18

GFSNIL_850_spd_039.txt.gz
Wind_Speed
19 18 19 23 23 23 22 21 23 25 27 26 22 16 17 17 15 14 13 14 15 17
20 22 25 24 22 24 25 27 25 24 25 21 17 18 16 16 17 17 17 18 18 19
22 27 28 27 22 25 27 28 28 26 26 21 18 16 15 16 17 18 16 17 20 22
26 28 25 25 25 27 29 30 28 28 24 19 16 16 19 19 18 20 20 21 20 17
26 25 25 25 28 28 29 26 23 22 20 19 18 20 17 19 23 21 19 18 21 24
23 21 23 28 26 25 26 21 27 28 20 17 21 18 20 22 21 22 22 25 28 31
23 22 27 27 25 25 24 30 34 19 15 21 16 18 21 21 22 23 27 30 28 27
27 27 24 28 23 23 28 30 31 22 19 13 15 18 20 21 22 27 28 26 25 25
23 27 31 28 25 28 29 30 28 18 10 16 15 16 18 22 27 26 25 26 25 26
26 27 30 33 27 25 26 23 12 15 14 13 15 18 21 25 25 24 24 26 27 27
27 31 35 28 23 18 17 14 11 10 11 13 16 20 25 24 23 24 25 26 27 27
27 33 28 25 16 12 13 10 11 8 10 16 20 23 22 22 24 26 27 25 24 21
28 27 26 21 15 11 11 11 9 11 14 18 20 19 19 21 25 27 26 24 19 16
27 28 25 21 17 12 10 11 7 11 17 18 18 17 18 21 24 24 24 21 19 15

GFSNIL_850_spd_042.txt.gz
Wind_Speed
13 14 17 18 19 17 20 23 24 24 25 25 25 22 18 18 17 16 16 18 18 20
14 20 23 22 22 22 23 26 25 25 24 21 20 18 17 15 15 15 17 17 19 21
19 22 24 22 21 23 25 25 25 22 20 22 20 17 15 16 16 18 18 20 21 22
20 20 21 20 23 25 23 24 25 22 24 26 24 17 17 19 16 18 19 18 19 18
23 20 21 21 23 22 22 22 24 23 27 25 22 19 19 16 18 17 17 19 21 25
20 24 23 23 22 23 22 22 23 24 30 29 19 16 17 15 17 18 19 23 28 31
26 22 20 24 28 29 29 26 26 29 31 29 16 15 12 16 17 20 24 29 30 28
20 19 25 28 31 30 25 25 27 29 29 25 11 11 15 15 20 25 29 29 27 27
22 26 25 28 31 26 21 21 20 16 15 9 12 12 12 18 26 29 29 29 29 29
25 24 25 31 26 26 19 13 15 11 10 11 11 11 16 24 27 26 27 28 29 30
24 25 27 27 25 23 15 14 13 11 12 11 12 17 22 24 23 24 25 26 26 26
25 27 27 27 23 18 20 15 12 13 10 12 15 21 21 22 22 23 25 24 23 21
24 24 28 26 24 22 18 16 13 10 10 14 19 19 19 19 22 25 26 25 22 19
22 27 26 24 21 16 13 13 12 8 13 18 18 17 17 18 21 24 24 25 24 20

GFSNIL_850_spd_045.txt.gz
Wind_Speed
10 12 14 17 16 16 19 19 21 21 22 21 20 21 22 22 20 16 16 15 17 18
10 13 15 16 16 18 21 21 21 22 23 22 21 23 24 23 18 17 17 17 19 20
12 15 18 20 20 21 22 23 23 23 23 23 22 22 23 22 17 18 16 18 20 20
17 20 20 21 22 22 23 22 22 22 24 24 24 23 24 19 16 14 16 18 19 19
16 20 23 21 19 21 25 24 24 23 23 25 24 22 25 15 11 13 16 18 20 23
23 22 19 17 21 24 28 26 24 23 24 24 24 24 26 11 10 13 16 20 24 29
17 15 16 21 25 27 26 25 24 22 22 23 23 26 9 8 15 15 19 24 28 29
14 18 20 23 26 26 24 25 25 22 19 17 12 8 10 14 13 18 24 28 28 27
19 21 23 25 26 24 24 23 16 16 14 9 9 10 10 12 17 24 27 27 27 28
20 22 23 23 24 23 21 19 18 14 11 12 11 9 13 18 22 23 23 25 27 27
22 22 22 21 24 23 22 20 20 14 11 11 10 13 17 22 21 21 23 24 24 23
22 22 22 25 26 23 23 21 17 14 11 10 12 16 21 21 20 21 23 23 21 21
24 22 22 26 25 24 23 16 11 11 11 10 15 18 19 19 20 22 23 20 20 20
24 24 25 24 24 24 16 15 13 9 10 14 17 17 16 17 19 20 19 19 20 18

GFSNIL_850_spd_048.txt.gz
Wind_Speed
2 4 6 9 11 14 15 16 17 18 19 19 21 21 19 18 18 18 18 16 15 15
9 9 10 14 14 13 15 18 19 20 21 22 22 21 20 20 20 20 18 18 15 14
9 10 13 13 12 13 15 16 18 20 21 23 23 21 21 20 20 19 18 15 14 15
9 13 11 11 11 12 15 18 20 21 22 22 23 21 21 21 20 21 15 14 14 14
10 10 10 10 12 15 17 19 20 19 19 19 19 19 22 25 21 13 12 12 13 17
10 11 11 12 14 16 18 19 18 17 17 17 17 16 18 19 21 9 11 12 15 20
12 11 11 14 15 16 18 18 17 17 17 18 18 18 14 9 7 10 12 14 18 20
11 12 13 14 15 17 17 17 17 13 12 15 10 6 5 7 8 11 15 17 17 17
13 14 15 16 16 17 18 18 15 14 13 9 8 12 10 9 10 14 15 16 16 17
14 15 16 16 16 17 19 17 17 15 12 11 10 12 11 12 13 14 13 14 16 17
16 17 15 15 16 18 19 17 17 17 13 11 9 11 13 16 15 12 13 14 16 16
18 15 15 15 18 19 17 16 17 15 10 9 9 13 16 18 12 12 14 15 15 17
16 14 15 17 18 17 17 15 12 8 8 10 9 15 18 16 12 14 13 14 15 17
16 15 17 18 13 14 14 13 11 12 11 9 11 16 16 15 15 12 14 14 15 15

GFSNIL_850_spd_051.txt.gz
Wind_Speed
2 3 6 9 11 13 13 13 15 17 18 20 21 22 22 26 22 19 20 21 19 16
5 9 9 10 12 12 13 14 16 17 18 19 20 21 22 24 24 22 20 18 17 16
14 7 9 10 12 12 12 13 15 17 18 20 20 21 22 23 22 20 19 17 17 12
4 8 10 11 11 11 12 14 16 18 18 18 19 20 20 22 20 20 21 21 15 12
8 10 10 11 11 12 14 15 17 18 18 19 19 19 19 19 18 18 16 13 11 11
10 11 11 11 13 14 14 16 17 17 19 20 19 18 20 18 14 13 9 10 11 14
11 10 11 13 13 14 15 17 17 18 18 23 17 14 13 10 8 9 10 10 13 16
10 11 13 14 15 16 17 17 19 19 18 15 18 10 8 9 10 9 12 14 16 16
11 13 14 16 17 18 17 18 19 19 20 18 14 18 17 16 10 11 14 15 15 16
12 14 15 17 17 17 18 19 20 21 20 21 17 22 16 14 13 12 13 14 15 16
13 15 17 17 17 17 18 19 20 20 18 21 18 17 16 14 15 11 12 13 14 15
14 16 17 17 17 18 18 18 20 17 16 14 15 16 17 15 14 11 13 12 13 14
15 17 17 17 18 16 16 17 16 17 11 10 12 16 18 17 14 14 13 11 12 16
16 17 17 17 17 15 15 17 23 17 17 14 14 15 19 19 14 11 12 12 11 11

GFSNIL_850_spd_057.txt.gz
Wind_Speed
21 17 13 10 13 13 15 19 19 22 23 25 25 26 24 24 26 26 23 23 24 25
18 14 12 13 12 18 19 19 19 21 22 23 22 23 22 22 23 23 23 23 24 20
15 13 12 16 21 14 18 18 20 20 21 21 21 19 19 20 20 20 21 22 23 20
12 11 12 11 13 15 18 19 19 21 22 22 20 20 20 22 24 26 25 23 22 22
8 5 7 9 13 14 15 17 19 21 22 23 20 21 24 26 30 27 26 20 19 13
1 6 11 13 13 16 19 21 23 23 24 16 21 24 26 28 27 24 12 11 12 13
8 12 14 15 18 20 20 21 22 23 19 21 24 27 29 29 22 20 15 13 13 13
10 14 15 16 18 18 19 20 21 19 20 23 27 28 30 24 23 18 16 16 14 13
13 14 14 15 17 21 20 19 20 22 25 26 29 29 29 22 26 26 24 16 17 17
10 14 18 21 22 20 18 19 19 18 22 26 28 30 25 23 24 22 13 13 15 18
11 15 20 21 20 18 21 23 24 26 25 27 30 26 27 23 19 15 12 16 19 21
11 20 21 20 20 22 25 24 23 20 21 25 28 29 29 20 17 16 18 20 21 21
19 20 18 19 21 23 24 25 23 23 23 27 31 33 20 18 18 20 20 23 21 18
18 19 19 21 21 23 21 20 25 28 28 29 28 24 20 19 19 20 21 21 18 18

GFSNIL_850_spd_060.txt.gz
Wind_Speed
23 21 20 19 15 11 10 13 22 23 21 23 24 25 25 26 26 26 25 23 19 21
20 19 20 18 11 11 17 21 17 19 21 25 24 25 26 27 26 25 23 24 25 26
20 20 17 12 15 19 17 18 19 21 23 24 26 26 26 24 23 23 24 28 29 25
23 19 12 13 17 15 16 20 21 24 25 26 28 27 25 22 25 27 28 32 26 22
21 14 14 7 11 15 16 18 21 22 25 27 26 25 22 24 27 29 32 26 17 14
17 9 8 7 9 12 14 18 21 25 26 25 27 23 24 24 26 30 29 21 18 16
12 11 8 9 11 15 18 18 24 27 25 25 25 24 24 27 29 30 21 22 20 18
12 8 7 11 13 11 16 24 26 23 22 23 25 25 25 27 30 24 23 25 25 23
11 9 9 5 13 28 24 24 23 22 24 25 21 25 26 27 25 25 25 23 23 15
10 5 8 20 15 19 21 20 21 22 25 27 28 27 26 26 27 27 23 16 15 13
5 15 13 15 18 20 20 20 22 24 25 24 22 23 26 29 31 24 18 17 16 17
16 13 15 18 18 19 20 22 23 25 26 25 25 26 29 30 27 18 17 17 18 19
12 16 17 19 19 20 22 25 28 29 28 27 28 28 31 27 22 21 19 18 19 20
17 16 18 19 20 22 24 24 25 27 25 23 25 27 25 20 21 19 18 20 20 20

GFSNIL_850_spd_063.txt.gz
Wind_Speed
22 23 23 24 27 26 22 16 16 17 21 11 16 20 21 23 24 23 21 20 19 20
26 26 26 26 24 22 14 14 18 13 11 15 18 20 24 24 24 20 19 20 23 28
25 24 25 26 25 16 13 14 10 11 15 18 20 24 26 26 22 20 22 25 28 32
24 26 26 24 17 15 16 10 13 15 17 20 23 25 25 25 22 22 24 26 31 30
30 28 24 13 20 10 8 11 14 16 19 21 22 24 25 23 22 23 24 28 30 22
22 19 17 13 11 10 11 13 14 18 21 24 24 23 23 23 22 22 26 29 24 22
18 19 19 15 12 10 11 12 18 20 23 22 23 22 22 22 22 24 28 26 23 23
21 17 15 13 11 8 10 19 23 23 22 22 22 22 21 22 25 26 27 24 25 26
18 17 14 8 7 15 24 20 19 22 22 22 23 23 24 25 25 25 25 28 27 25
15 10 7 10 17 19 17 19 19 20 21 23 24 23 21 20 23 26 28 30 24 19
7 5 13 18 18 17 18 19 20 21 23 26 26 25 24 23 26 29 30 25 20 19
6 19 22 16 18 19 20 20 21 23 26 27 28 27 26 25 28 30 26 20 21 19
20 21 17 19 20 19 19 21 23 25 26 28 28 26 26 27 30 28 25 21 23 23
13 17 18 19 19 20 21 24 26 29 29 29 29 28 29 30 29 27 25 24 20 20

GFSNIL_850_spd_066.txt.gz
Wind_Speed
20 20 16 18 18 22 23 23 20 16 13 19 14 14 15 17 19 19 18 16 16 16
22 20 22 23 24 26 28 26 21 13 22 15 13 14 17 19 19 19 16 16 16 18
21 24 25 26 29 29 29 19 12 25 12 11 12 16 19 20 20 17 17 17 18 22
24 27 28 28 30 30 21 17 15 10 8 12 17 18 18 19 18 18 18 18 20 24
29 28 27 26 17 10 17 17 9 8 11 18 17 18 20 19 19 21 21 19 22 26
29 26 23 19 17 20 11 6 6 13 16 18 19 21 20 21 21 22 20 21 25 25
26 22 18 19 13 9 7 9 12 16 20 20 19 20 21 22 21 20 22 25 25 23
17 17 16 11 9 7 9 12 15 23 19 19 21 21 21 20 20 23 24 24 24 25
16 14 12 10 6 8 12 17 26 19 20 20 20 20 20 20 21 22 23 25 26 27
14 13 10 7 9 12 22 26 20 20 20 20 21 21 23 22 24 24 25 26 29 29
11 6 4 10 18 25 19 20 21 20 20 22 23 23 25 26 27 27 27 28 29 25
4 8 15 21 19 18 21 21 21 21 22 25 27 27 28 28 28 29 31 30 27 24
11 16 22 15 20 20 21 21 23 25 25 28 30 30 30 29 28 32 34 32 27 25
20 15 16 17 19 20 21 25 27 29 30 30 31 32 32 30 28 29 32 32 30 26

GFSNIL_850_spd_069.txt.gz
Wind_Speed
30 26 22 19 20 20 21 25 26 24 22 11 26 17 12 15 17 17 15 15 13 13
28 28 25 22 22 24 25 26 25 22 14 20 16 10 12 16 16 15 16 15 15 15
28 24 24 25 27 27 26 24 19 11 14 15 8 9 15 16 16 17 16 16 16 17
23 24 29 28 26 26 25 20 10 20 23 7 10 15 18 17 18 18 17 17 18 19
28 29 28 24 25 21 17 19 15 17 10 11 15 18 19 19 19 20 20 20 21 21
27 25 23 23 18 17 16 13 12 10 8 12 19 20 20 20 21 22 22 22 22 24
23 21 19 15 14 16 12 8 7 8 11 19 22 21 19 21 21 21 22 22 25 26
22 18 12 16 15 9 2 5 9 10 21 19 18 19 19 20 21 22 23 24 26 27
18 15 12 14 8 0 5 4 13 22 19 20 20 20 20 21 23 24 25 27 27 27
13 13 11 3 4 5 11 23 16 16 19 20 20 20 21 22 25 28 29 29 29 29
15 11 8 5 8 14 20 14 16 19 20 20 21 22 23 25 27 29 30 30 30 32
13 7 3 14 16 14 14 16 18 19 20 23 25 24 25 27 30 32 33 32 32 32
3 7 13 14 12 13 15 17 19 21 23 25 28 28 28 29 34 36 35 35 33 30
8 10 9 10 11 14 16 20 23 27 30 32 33 35 35 35 37 39 38 37 37 34

GFSNIL_850_spd_072.txt.gz
Wind_Speed
26 27 28 23 25 25 24 22 23 27 25 25 17 14 17 13 12 11 13 11 10 10
28 28 28 25 25 21 19 19 27 26 28 22 14 19 14 11 11 13 12 12 11 12
26 27 25 27 25 21 22 26 24 24 19 14 14 17 11 12 12 13 13 12 13 14
21 23 25 27 30 28 24 24 20 16 11 21 16 12 13 13 14 14 15 15 16 17
20 24 27 27 24 24 20 16 14 15 15 12 10 12 13 16 16 16 17 18 19 20
17 15 16 19 21 19 12 17 16 10 12 10 11 12 15 16 17 18 19 20 21 22
20 22 25 19 13 14 12 20 11 9 11 13 13 15 16 15 16 18 19 20 21 22
19 16 17 5 3 12 16 10 14 8 13 15 18 15 13 14 16 17 19 20 22 23
18 18 16 9 12 12 10 11 9 13 14 15 12 17 19 20 21 19 21 23 24 25
18 19 12 13 12 11 5 10 14 13 12 12 13 19 19 21 23 23 23 25 26 27
18 16 14 11 6 5 10 12 9 9 10 12 14 19 20 22 25 25 25 25 27 28
17 15 11 7 9 8 7 7 9 10 11 13 15 20 23 24 27 27 29 29 30 31
14 8 5 6 6 6 7 8 8 10 12 18 23 23 27 29 31 36 35 34 34 34
8 7 7 6 6 7 7 10 14 20 22 24 25 24 26 27 25 24 28 29 33 34

GFSNIL_850_spd_075.txt.gz
Wind_Speed
27 28 29 25 22 26 23 25 22 25 23 21 21 21 11 11 13 13 13 12 13 13
28 29 26 22 25 23 22 24 21 22 23 22 28 22 11 11 12 11 12 12 13 14
26 25 25 27 25 24 24 21 23 24 25 32 21 17 15 18 10 12 14 13 14 15
26 23 23 23 23 20 21 26 27 27 24 16 11 17 17 11 12 14 17 16 16 17
20 22 25 24 23 24 27 26 21 14 15 15 17 11 12 13 13 16 18 17 18 18
22 24 24 21 18 22 22 14 6 15 15 9 12 7 12 14 15 17 18 18 19 20
24 26 27 27 22 20 19 15 7 16 12 11 10 13 14 15 15 16 17 18 19 21
28 25 20 15 13 17 13 10 13 16 7 5 10 13 15 12 13 16 17 19 20 22
23 20 20 17 18 13 16 12 9 8 10 10 13 16 19 19 20 19 19 21 22 24
20 23 23 14 16 13 11 9 6 8 10 11 11 16 19 19 20 21 20 22 24 26
22 24 19 16 14 11 9 7 9 8 8 8 9 17 21 21 22 23 22 23 25 28
22 21 17 14 10 7 7 7 6 6 7 8 9 16 22 26 26 25 26 25 26 28
18 15 14 8 6 6 7 7 7 7 7 11 14 15 23 27 29 29 28 27 24 27
16 10 8 8 7 7 6 7 9 14 15 16 15 15 21 23 23 22 26 28 30 29

GFSNIL_850_spd_078.txt.gz
Wind_Speed
34 32 32 33 32 26 27 28 27 28 32 28 28 31 29 21 14 13 12 13 15 16
34 34 35 34 32 25 25 23 24 28 31 29 31 30 25 17 9 12 17 15 16 17
33 34 35 31 26 24 20 19 25 29 31 32 30 30 28 12 9 16 10 14 15 15
36 32 33 30 27 26 24 23 26 29 31 30 29 24 25 19 21 8 15 17 18 20
33 33 32 34 33 30 27 27 33 31 29 28 20 15 18 20 18 14 12 18 19 20
34 30 33 30 25 28 27 28 29 25 23 21 18 14 17 17 12 12 15 18 20 21
31 30 31 27 26 21 25 25 23 11 13 18 21 13 15 10 13 18 19 17 19 22
29 25 28 26 23 23 22 21 16 9 15 18 16 11 10 16 20 20 19 21 23 23
21 25 25 24 24 19 23 20 11 12 15 13 8 11 18 21 22 22 23 23 22 23
21 23 23 22 21 23 22 16 14 13 12 12 15 17 20 20 20 21 21 22 23 24
21 24 25 23 22 20 18 16 13 10 14 17 14 13 17 20 20 22 23 23 23 26
22 27 24 21 19 17 15 11 14 14 11 10 13 15 17 20 23 25 27 29 30 29
25 25 20 18 18 12 12 12 11 12 15 15 17 19 21 24 26 28 29 27 27 26
19 17 16 13 13 14 13 15 18 20 17 16 17 21 23 23 24 24 24 24 26 27

GFSNIL_850_spd_081.txt.gz
Wind_Speed
37 37 34 32 32 30 27 25 25 28 33 33 33 33 34 33 32 28 26 21 19 14
39 40 37 35 34 31 29 28 26 27 31 33 35 35 37 32 27 24 20 15 15 17
40 39 40 41 39 35 31 28 24 26 30 34 35 35 29 21 25 17 13 16 21 16
39 40 39 40 36 34 31 25 24 27 29 32 39 29 31 30 29 21 26 25 19 17
39 38 38 35 36 35 29 24 22 21 26 32 34 30 32 29 21 26 21 21 16 19
42 41 38 30 31 32 30 25 25 22 29 29 34 31 26 21 19 18 18 15 16 18
40 41 30 30 36 34 28 27 22 23 30 31 28 23 22 17 17 15 11 14 18 21
37 34 29 33 30 27 26 28 28 25 26 23 23 23 17 16 15 15 19 23 24 24
31 32 25 25 27 30 30 27 28 24 19 21 20 16 15 16 16 21 24 24 24 25
23 22 23 24 28 28 28 27 26 18 18 19 17 14 14 16 20 22 24 24 23 24
16 17 19 25 26 27 27 26 18 16 15 13 12 15 20 23 22 22 22 22 24 24
15 20 24 26 27 27 25 19 17 14 15 18 21 21 21 21 22 22 22 24 26 27
17 21 23 25 24 22 19 17 17 19 21 20 20 20 21 22 22 23 25 26 24 23
20 25 25 23 20 20 19 19 19 18 19 20 20 20 20 22 24 24 22 22 21 22

GFSNIL_850_spd_087.txt.gz
Wind_Speed
40 38 40 39 39 40 41 42 41 40 39 38 37 37 36 36 36 35 38 40 38 38
39 40 42 40 38 40 41 40 37 35 39 40 39 39 38 40 39 39 39 41 33 38
43 44 44 41 42 42 39 38 38 38 38 42 42 41 40 42 38 42 41 41 34 35
46 45 43 43 44 43 42 43 42 44 45 41 41 40 38 40 40 41 39 44 34 32
47 47 46 46 45 45 47 48 46 43 47 39 39 38 40 41 40 38 38 40 37 34
52 51 51 48 46 46 47 46 46 28 39 40 38 38 38 36 37 36 36 37 36 34
51 51 48 47 48 47 47 40 26 34 36 37 37 32 34 36 39 42 39 38 33 28
47 49 47 46 43 43 44 40 39 34 34 32 39 34 33 33 37 43 40 34 29 23
39 39 40 39 40 40 37 38 39 33 31 34 40 38 34 34 38 35 22 23 22 21
33 33 34 33 29 27 26 30 29 28 31 36 39 39 32 33 30 28 26 22 20 19
28 29 27 23 19 19 23 21 24 29 34 35 30 30 27 24 19 18 18 16 19 21
20 18 14 13 16 19 21 20 24 28 31 24 23 20 21 21 21 18 18 18 21 25
9 9 10 13 15 18 20 20 19 18 18 19 19 18 18 17 14 18 18 19 18 18
8 11 11 12 13 14 15 17 21 22 21 18 17 18 18 18 16 15 16 15 15 17

GFSNIL_850_spd_090.txt.gz
Wind_Speed
33 32 35 37 37 40 44 45 42 40 40 39 37 36 37 37 38 38 39 39 37 38
32 34 35 37 38 41 42 43 43 42 43 41 42 42 41 42 41 39 40 38 37 39
35 37 38 38 40 40 42 42 42 43 43 44 45 43 42 43 41 40 39 40 42 43
36 36 36 38 39 39 39 40 43 44 44 45 45 43 42 40 41 39 40 44 45 44
38 38 40 41 40 40 41 42 44 44 45 48 44 46 40 39 30 34 43 44 44 44
41 45 42 42 43 43 44 44 44 45 45 45 43 48 44 35 44 50 50 45 45 41
43 44 44 45 46 47 48 46 46 44 31 41 40 38 40 39 44 47 49 43 41 42
50 50 49 48 47 47 45 43 42 42 43 42 38 33 32 36 39 38 38 39 41 42
39 42 44 45 44 42 41 41 39 37 36 40 39 36 36 33 36 38 38 38 38 36
29 30 31 31 33 33 32 30 28 26 32 32 34 35 33 35 39 41 36 31 30 30
24 24 24 24 23 21 20 20 25 25 26 30 32 32 30 27 25 23 22 21 20 20
14 11 11 12 14 17 18 19 21 24 21 21 20 21 19 18 20 20 19 18 23 21
4 5 5 7 8 11 12 15 14 13 14 14 15 15 16 17 18 21 20 18 17 16
6 5 4 6 7 9 10 11 11 13 13 14 15 17 18 16 15 14 13 12 11 10

GFSNIL_850_spd_093.txt.gz
Wind_Speed
36 42 44 42 41 43 42 42 46 40 37 37 37 36 36 35 35 36 37 39 40 41
37 44 45 44 42 42 43 43 50 46 44 40 38 39 39 40 41 42 43 45 43 43
36 38 41 40 40 40 42 43 45 46 45 45 44 43 43 44 44 46 46 46 45 43
34 34 34 34 35 36 37 38 39 40 41 42 43 43 43 44 46 47 47 47 46 41
32 32 33 34 33 33 35 36 35 35 36 38 40 42 43 45 51 55 54 52 39 32
35 35 35 36 35 35 35 34 34 36 38 40 43 44 41 44 38 44 47 43 35 45
38 39 39 39 38 36 36 37 38 39 39 40 42 39 41 41 42 40 40 41 44 42
38 39 39 38 35 34 34 35 35 36 39 37 36 36 40 45 50 39 38 40 42 42
30 34 37 36 36 35 34 34 34 32 30 31 31 31 28 34 37 36 39 37 40 42
20 20 22 23 24 24 23 21 22 22 25 25 28 32 33 30 32 34 33 36 37 34
14 15 15 14 15 15 16 17 19 24 28 27 27 27 26 26 24 24 25 25 23 23
10 10 10 11 12 13 15 18 20 19 15 18 20 19 22 20 17 19 20 17 17 16
8 9 10 11 11 11 10 8 8 10 11 10 12 13 13 10 12 14 15 15 13 9
10 9 8 6 4 1 3 4 4 6 6 6 7 6 10 9 9 8 6 5 4 6

GFSNIL_850_spd_096.txt.gz
Wind_Speed
26 35 33 29 30 38 39 40 41 42 40 43 38 39 36 34 33 34 35 34 35 36
27 35 35 27 29 33 31 33 39 37 36 34 36 35 35 33 31 30 35 37 40 41
31 32 29 30 31 32 29 28 26 28 31 32 34 34 32 32 32 31 34 34 37 39
29 30 33 33 36 37 37 34 32 32 31 32 35 35 36 37 38 36 40 41 46 48
28 30 32 36 35 36 37 37 37 35 33 33 34 37 38 44 48 47 46 47 51 54
30 31 32 34 36 31 32 31 29 30 31 31 32 33 37 43 42 42 49 47 48 42
29 29 28 29 30 31 30 30 31 32 32 31 30 29 30 35 39 42 42 43 42 44
28 27 27 27 28 28 28 29 28 26 27 27 28 31 34 36 35 34 33 35 37 36
23 24 25 25 25 26 27 28 28 27 26 29 29 27 24 25 30 32 33 32 33 34
19 20 21 20 20 21 23 21 21 21 22 25 26 26 27 28 28 26 27 28 30 29
14 13 12 13 14 16 20 20 23 23 23 24 24 23 23 22 21 20 20 21 22 22
15 15 15 15 16 17 17 17 16 15 14 13 11 13 15 16 14 14 14 14 13 12
14 13 13 13 12 11 9 9 8 6 3 2 3 6 7 7 7 6 5 3 3 3
18 16 14 13 11 9 8 7 5 4 4 3 5 6 3 3 3 4 5 6 7 9

GFSNIL_850_spd_099.txt.gz
Wind_Speed
23 27 32 34 31 31 35 38 39 36 36 40 36 32 27 35 38 33 31 31 31 31
22 24 34 36 31 29 28 33 38 40 42 42 43 39 44 37 39 42 41 37 32 33
24 23 23 27 28 26 27 29 30 37 39 39 37 36 37 42 39 38 37 35 36 33
25 23 25 27 27 29 27 28 27 28 33 32 32 31 31 34 37 34 33 33 35 38
25 25 26 27 31 29 30 29 28 31 28 29 31 31 34 36 37 35 38 41 40 40
24 24 26 26 28 28 29 28 28 28 30 31 32 34 34 36 38 40 38 39 39 44
24 25 24 24 25 28 27 27 28 29 28 29 27 27 28 29 32 34 35 40 38 39
24 23 23 23 23 23 25 25 23 23 23 23 24 25 28 29 32 35 37 31 35 39
23 22 23 22 22 21 21 21 20 20 20 20 26 31 31 31 34 37 37 32 32 32
22 22 21 19 19 19 18 17 23 26 26 25 27 29 32 33 31 29 28 28 27 25
20 19 18 19 23 24 24 25 25 26 27 29 28 27 27 25 23 19 16 13 11 12
19 25 27 25 25 23 22 22 22 20 18 16 15 14 12 9 6 6 6 4 6 8
28 26 24 21 20 20 18 17 14 12 9 8 6 3 2 3 4 4 5 6 7 8
23 22 21 20 19 17 16 16 16 14 14 11 10 9 8 7 6 6 7 8 10 11

GFSNIL_850_spd_102.txt.gz
Wind_Speed
22 21 20 24 26 30 34 39 45 48 47 40 32 33 37 31 29 26 27 26 32 37
25 23 23 26 27 34 37 40 41 44 44 36 36 37 33 28 26 26 29 33 34 34
25 21 22 28 28 29 32 37 33 40 40 39 39 35 40 36 36 36 38 39 39 42
23 22 21 29 31 26 26 29 34 38 40 41 40 41 43 44 41 39 39 41 41 38
27 24 23 21 28 30 29 29 30 30 34 39 38 42 42 39 38 35 34 36 35 37
31 29 27 28 26 27 29 26 27 27 25 25 29 33 35 36 37 36 35 35 34 35
30 32 30 28 32 31 28 28 30 30 29 31 30 30 32 33 33 32 32 32 34 35
25 26 27 27 26 27 29 29 29 29 27 26 26 29 31 28 26 28 28 29 31 33
27 26 27 26 25 25 24 25 23 23 26 28 29 31 28 27 28 31 33 35 31 28
27 27 26 25 24 23 23 27 28 28 27 27 28 30 30 29 32 36 31 24 19 15
25 24 22 25 30 28 28 28 28 27 27 28 28 28 27 25 23 23 14 7 2 2
24 31 32 30 29 29 30 28 25 22 20 16 13 12 14 9 5 4 4 4 5 6
35 33 31 29 27 26 25 25 21 19 14 12 11 10 10 8 6 5 6 6 6 8
30 29 25 25 24 24 24 24 22 20 20 17 15 14 12 10 8 8 7 7 8 10

GFSNIL_850_spd_105.txt.gz
Wind_Speed
16 12 17 29 40 44 44 52 52 56 54 45 40 41 38 34 31 29 29 30 33 29
22 19 18 20 21 28 35 38 49 52 44 44 45 42 34 33 33 37 29 30 31 31
23 20 18 19 21 23 28 33 36 40 43 42 42 39 36 35 32 32 39 31 29 30
25 23 22 23 23 25 28 33 38 42 42 43 40 38 33 31 32 37 33 32 31 36
25 24 23 24 24 26 25 25 27 32 34 36 35 36 34 35 38 38 38 41 40 38
27 27 25 23 26 26 26 26 27 29 31 32 35 37 38 38 37 37 38 38 36 37
30 28 25 23 24 31 28 25 24 24 25 25 27 32 35 36 35 33 32 34 37 38
29 30 26 25 24 25 27 25 24 23 22 22 24 26 25 26 27 30 33 36 37 37
27 32 32 28 27 28 24 24 27 29 31 30 31 33 32 31 32 34 34 33 28 24
26 27 30 28 25 26 32 32 31 31 32 33 33 34 32 31 29 26 25 25 23 18
28 27 26 30 33 32 33 33 32 31 31 31 30 27 25 25 26 29 25 17 10 5
31 35 37 35 34 33 33 31 28 25 23 20 20 20 23 22 20 16 13 10 7 4
40 39 37 37 36 34 30 29 26 25 21 18 17 16 16 14 14 13 11 8 5 4
37 37 33 33 33 32 31 29 27 25 23 22 20 19 15 13 11 9 8 9 9 8

GFSNIL_850_spd_108.txt.gz
Wind_Speed
15 10 14 13 24 29 42 53 54 53 49 50 47 45 44 43 38 37 35 34 27 23
18 12 9 12 24 23 34 38 46 55 47 47 44 43 43 41 36 33 31 32 29 27
23 17 12 10 17 21 28 39 48 53 54 46 44 44 40 35 33 32 34 32 31 31
25 23 18 14 13 16 25 34 39 43 49 54 48 33 41 43 40 35 34 34 34 35
26 26 23 20 18 18 18 22 26 36 32 34 39 38 38 36 35 33 33 33 32 32
30 28 26 23 23 22 21 22 23 25 29 30 34 34 35 33 33 31 29 29 31 35
29 28 26 23 24 23 23 22 21 22 24 28 31 32 34 32 33 31 31 35 36 38
28 27 25 23 24 24 24 21 18 19 20 23 27 30 32 32 34 36 36 39 36 35
29 29 27 24 22 23 24 23 21 23 25 27 29 27 27 27 30 31 31 31 32 33
28 26 29 25 22 23 27 31 29 29 30 29 29 27 25 24 26 28 30 29 30 24
27 28 28 29 31 29 29 29 30 31 30 30 29 28 27 27 27 27 26 20 16 12
26 31 34 36 34 34 34 32 32 31 31 29 28 27 27 27 28 24 19 14 12 10
34 32 33 34 35 35 33 33 32 30 26 27 26 22 22 25 24 23 20 17 13 8
33 34 33 33 35 35 34 34 32 31 27 25 23 24 23 22 21 21 19 13 9 6

GFSNIL_850_spd_114.txt.gz
Wind_Speed
27 27 28 28 27 30 34 39 40 44 42 43 43 41 45 47 48 47 46 41 42 39
26 25 25 26 29 33 34 36 44 44 44 47 46 45 43 46 49 46 45 42 41 42
26 24 21 19 19 23 28 33 39 43 44 54 52 52 50 47 49 48 49 46 46 43
26 23 19 16 15 20 22 22 23 33 46 52 59 54 51 45 45 51 50 48 48 41
25 23 20 15 11 11 14 14 13 23 29 41 49 53 52 46 47 41 38 41 35 37
24 24 21 17 12 9 8 15 14 14 30 35 30 39 43 46 34 38 37 36 34 28
23 24 23 18 14 10 8 11 12 18 20 28 34 37 37 30 32 39 37 26 23 26
22 23 21 20 16 13 11 9 9 13 21 24 30 35 37 28 27 27 25 24 21 22
21 23 21 20 17 15 14 12 11 14 14 18 23 21 20 19 22 23 21 20 22 23
22 22 23 21 17 15 17 16 15 14 14 16 15 18 19 17 17 19 19 19 21 22
20 20 21 20 19 17 18 18 16 15 14 14 15 15 16 16 18 19 22 23 23 21
18 19 24 22 21 19 20 18 18 17 16 15 15 15 16 18 21 22 22 21 19 18
22 18 20 21 22 21 20 18 17 17 18 18 16 17 17 20 23 25 25 24 21 19
23 20 19 18 21 22 22 20 20 20 19 18 18 19 23 24 24 26 28 27 24 21

GFSNIL_850_spd_117.txt.gz
Wind_Speed
23 24 22 23 23 28 24 31 25 31 33 34 31 31 34 40 44 46 48 46 45 41
25 24 25 24 22 24 27 26 28 31 34 41 44 42 40 38 42 45 47 46 44 41
25 24 24 23 25 28 26 27 30 32 33 40 44 49 52 45 42 44 46 46 44 42
23 23 22 22 21 21 25 28 33 32 34 39 44 46 48 45 44 47 47 45 43 39
24 23 22 21 20 18 20 22 23 27 32 39 40 51 47 44 47 45 49 49 47 50
24 24 22 20 17 13 11 15 17 12 14 22 29 40 48 47 54 50 51 49 51 47
24 24 22 20 16 10 8 9 10 10 12 19 26 42 45 47 51 44 41 43 42 44
20 23 23 22 16 12 9 6 6 6 6 10 17 26 27 34 40 34 35 33 35 38
20 21 23 22 19 14 11 8 8 7 6 6 11 22 28 33 33 26 36 40 34 27
21 22 23 21 20 17 14 12 11 10 9 8 13 14 19 28 29 27 27 27 26 24
23 23 25 23 24 19 18 16 14 14 12 11 11 11 15 17 16 20 20 22 21 19
27 26 28 27 25 21 20 19 18 17 15 15 15 15 13 16 18 22 24 22 19 16
28 29 29 28 26 24 22 21 21 20 18 15 15 16 17 18 19 22 23 23 21 18
27 26 30 30 28 26 25 22 25 22 20 17 16 17 18 21 21 24 27 27 25 23

GFSNIL_850_spd_120.txt.gz
Wind_Speed
26 21 18 18 18 20 22 20 20 22 23 35 41 39 49 50 46 48 46 42 37 34
27 20 18 18 19 18 18 20 22 25 28 23 29 32 43 45 46 46 46 44 43 36
28 22 21 21 21 21 19 20 22 29 28 30 28 30 41 42 42 43 44 44 41 38
26 22 22 26 23 22 21 20 21 27 26 34 34 37 43 44 39 42 44 45 43 41
24 21 21 24 23 23 20 20 23 27 27 29 31 35 44 45 45 45 41 44 46 46
25 21 21 21 22 20 17 19 21 24 25 27 28 33 41 46 49 54 53 44 46 49
24 22 21 20 20 17 14 12 14 17 17 17 18 20 35 52 56 53 53 57 47 49
24 23 21 22 20 17 13 10 12 12 12 11 10 11 24 46 47 43 47 48 43 44
23 24 23 24 21 18 15 11 11 9 8 9 5 8 18 33 41 40 41 45 43 40
22 22 24 26 24 21 17 14 13 12 8 7 6 3 17 20 27 35 33 34 36 34
26 23 23 27 27 23 19 17 15 14 12 10 9 6 8 17 24 30 30 33 34 31
30 27 29 31 29 25 22 20 18 17 15 13 14 11 11 24 28 26 29 29 25 24
32 31 34 31 31 28 24 22 20 20 18 17 17 18 20 21 27 29 28 25 24 21
34 34 31 32 31 29 27 27 25 24 23 20 21 22 23 23 22 23 29 29 26 24

GFSNIL_850_spd_123.txt.gz
Wind_Speed
25 23 20 19 20 20 22 22 21 21 22 15 16 26 45 52 57 62 50 47 40 32
28 23 21 17 21 19 20 19 20 19 19 17 14 24 43 50 58 54 57 49 39 36
25 29 19 18 21 21 18 18 17 19 18 18 17 21 38 45 45 56 50 44 42 37
23 26 25 21 20 21 18 19 19 18 16 18 21 23 32 42 43 47 47 41 40 41
23 27 29 27 23 19 19 19 20 17 17 23 20 28 29 33 46 53 44 44 41 42
23 26 28 26 23 24 23 19 16 19 22 22 25 27 34 33 43 49 51 45 42 42
22 27 28 25 23 24 22 22 20 21 20 20 19 22 28 34 40 46 50 44 43 42
21 26 27 25 24 25 22 20 19 20 19 20 22 23 23 24 35 48 51 46 43 42
20 28 26 25 25 22 21 19 16 17 19 19 19 21 23 16 33 46 49 52 49 48
23 27 26 26 26 25 23 19 17 17 15 15 14 13 15 13 15 39 45 49 49 48
24 26 25 28 29 28 24 21 19 17 13 12 12 9 10 13 16 24 32 32 37 43
22 27 25 31 32 29 26 23 21 19 16 13 12 9 8 16 19 21 26 26 31 33
23 28 29 34 32 30 27 25 22 20 18 16 15 13 10 13 21 27 27 26 26 28
25 28 36 34 31 32 31 29 26 24 23 21 20 19 19 22 22 27 31 31 31 29

GFSNIL_850_spd_126.txt.gz
Wind_Speed
26 24 30 22 27 26 26 26 28 30 31 32 31 32 32 42 46 47 53 60 51 49
22 29 29 23 22 21 22 20 21 26 32 30 28 25 24 30 37 50 58 61 56 50
20 31 29 26 23 20 24 21 22 20 24 24 24 20 19 27 37 49 44 55 55 54
17 26 31 26 23 22 22 24 21 20 21 21 19 21 19 30 36 41 46 54 58 55
19 19 29 32 26 25 24 24 23 21 19 19 18 23 22 28 34 39 46 55 47 54
19 21 26 30 29 24 25 23 24 22 22 20 21 20 22 26 27 41 42 47 59 59
19 21 24 26 30 33 27 24 22 21 21 23 23 20 20 27 29 32 39 49 45 48
19 19 21 25 29 30 26 24 25 22 19 18 18 23 25 25 29 34 38 50 54 47
16 18 19 22 29 26 24 24 25 27 26 27 26 25 23 23 26 30 35 47 53 46
17 17 21 22 29 26 26 25 26 25 23 23 23 24 27 26 26 27 37 45 48 54
18 15 20 23 27 29 28 28 25 23 24 23 21 20 22 25 27 21 27 39 45 52
20 15 23 22 38 33 31 28 24 22 20 16 17 18 16 18 21 17 19 28 35 46
20 16 25 20 38 34 30 30 27 25 21 18 17 16 14 15 18 19 21 24 27 28
20 20 17 20 37 37 33 33 30 27 24 21 19 18 16 17 19 21 26 27 27 29